TimeCDT,TemperatureF,Dew PointF,Humidity,Sea Level PressureIn,VisibilityMPH,Wind Direction,Wind SpeedMPH,Gust SpeedMPH,PrecipitationIn,Events,Conditions,WindDirDegrees,DateUTC
12:15 AM,33.3,28.8,84,30.28,10.0,Calm,Calm,-,N/A,,Clear,0,2013-03-29 05:15:00
12:35 AM,32.9,29.5,87,30.28,10.0,Calm,Calm,-,N/A,,Clear,0,2013-03-29 05:35:00
12:55 AM,34.0,30.2,86,30.29,10.0,Calm,Calm,-,N/A,,Mostly Cloudy,0,2013-03-29 05:55:00
1:35 AM,32.9,30.4,90,30.29,10.0,Calm,Calm,-,N/A,,Mostly Cloudy,0,2013-03-29 06:35:00
1:55 AM,32.5,30.2,91,30.28,10.0,Calm,Calm,-,N/A,,Overcast,0,2013-03-29 06:55:00
2:15 AM,32.5,30.4,92,30.28,10.0,Calm,Calm,-,N/A,,Overcast,0,2013-03-29 07:15:00
2:35 AM,32.5,30.0,90,30.27,10.0,Calm,Calm,-,N/A,,Overcast,0,2013-03-29 07:35:00
2:55 AM,32.4,30.9,94,30.26,10.0,Calm,Calm,-,N/A,,Overcast,0,2013-03-29 07:55:00
3:15 AM,32.9,30.4,90,30.26,10.0,Calm,Calm,-,N/A,,Overcast,0,2013-03-29 08:15:00
3:35 AM,34.5,30.2,84,30.27,10.0,NNE,3.5,-,N/A,,Overcast,20,2013-03-29 08:35:00
3:55 AM,33.4,30.7,90,30.27,10.0,Calm,Calm,-,N/A,,Mostly Cloudy,0,2013-03-29 08:55:00
4:15 AM,34.0,30.9,89,30.27,10.0,Calm,Calm,-,N/A,,Overcast,0,2013-03-29 09:15:00
4:35 AM,33.1,31.1,92,30.26,7.0,East,3.5,-,N/A,,Mostly Cloudy,80,2013-03-29 09:35:00
4:55 AM,33.4,31.1,91,30.26,10.0,Calm,Calm,-,N/A,,Overcast,0,2013-03-29 09:55:00
5:15 AM,33.8,31.1,90,30.25,10.0,Calm,Calm,-,N/A,,Overcast,0,2013-03-29 10:15:00
5:35 AM,34.0,30.7,88,30.26,10.0,Calm,Calm,-,N/A,,Overcast,0,2013-03-29 10:35:00
5:55 AM,34.2,30.7,87,30.26,10.0,Calm,Calm,-,N/A,,Overcast,0,2013-03-29 10:55:00
6:15 AM,34.7,30.2,84,30.27,10.0,Calm,Calm,-,N/A,,Overcast,0,2013-03-29 11:15:00
6:35 AM,33.8,31.3,90,30.26,7.0,South,5.8,-,N/A,,Mostly Cloudy,190,2013-03-29 11:35:00
6:55 AM,35.1,30.2,82,30.27,10.0,Calm,Calm,-,N/A,,Mostly Cloudy,0,2013-03-29 11:55:00
7:15 AM,36.0,30.2,80,30.28,10.0,Calm,Calm,-,N/A,,Scattered Clouds,0,2013-03-29 12:15:00
7:35 AM,36.5,30.6,79,30.28,10.0,Calm,Calm,-,N/A,,Scattered Clouds,0,2013-03-29 12:35:00
7:55 AM,36.7,31.3,81,30.29,10.0,Calm,Calm,-,N/A,,Scattered Clouds,0,2013-03-29 12:55:00
8:15 AM,37.4,31.3,79,30.29,10.0,Calm,Calm,-,N/A,,Mostly Cloudy,0,2013-03-29 13:15:00
8:35 AM,38.5,31.5,76,30.29,10.0,Calm,Calm,-,N/A,,Overcast,0,2013-03-29 13:35:00
8:55 AM,39.6,32.5,76,30.29,10.0,Calm,Calm,-,N/A,,Overcast,0,2013-03-29 13:55:00
9:15 AM,41.4,32.0,69,30.29,10.0,Calm,Calm,-,N/A,,Scattered Clouds,0,2013-03-29 14:15:00
9:35 AM,42.4,31.8,66,30.29,10.0,SSE,3.5,-,N/A,,Scattered Clouds,150,2013-03-29 14:35:00
9:55 AM,43.9,32.5,64,30.29,10.0,Calm,Calm,-,N/A,,Scattered Clouds,0,2013-03-29 14:55:00
10:15 AM,45.5,32.7,61,30.29,10.0,Calm,Calm,-,N/A,,Scattered Clouds,0,2013-03-29 15:15:00
10:35 AM,46.4,31.6,56,30.29,10.0,SSE,3.5,-,N/A,,Clear,160,2013-03-29 15:35:00
10:55 AM,47.1,31.1,54,30.29,10.0,SE,3.5,-,N/A,,Scattered Clouds,140,2013-03-29 15:55:00
11:15 AM,47.8,31.3,53,30.28,10.0,SSE,3.5,-,N/A,,Clear,150,2013-03-29 16:15:00
11:35 AM,48.2,31.1,52,30.28,10.0,Calm,Calm,-,N/A,,Clear,0,2013-03-29 16:35:00
11:55 AM,49.3,31.1,50,30.28,10.0,SE,4.6,-,N/A,,Clear,130,2013-03-29 16:55:00
12:15 PM,49.3,29.3,46,30.27,10.0,Calm,Calm,-,N/A,,Clear,0,2013-03-29 17:15:00
12:35 PM,50.7,31.8,48,30.26,10.0,SE,4.6,-,N/A,,Clear,130,2013-03-29 17:35:00
12:55 PM,51.3,32.2,48,30.26,10.0,Calm,Calm,-,N/A,,Clear,0,2013-03-29 17:55:00
1:15 PM,51.3,31.3,46,30.25,10.0,Calm,Calm,-,N/A,,Clear,0,2013-03-29 18:15:00
1:35 PM,51.8,32.0,47,30.25,10.0,Calm,Calm,-,N/A,,Clear,0,2013-03-29 18:35:00
1:55 PM,52.9,31.5,44,30.24,10.0,North,3.5,-,N/A,,Clear,350,2013-03-29 18:55:00
2:15 PM,53.2,31.5,43,30.23,10.0,NE,4.6,-,N/A,,Clear,50,2013-03-29 19:15:00
2:35 PM,53.6,31.8,44,30.23,10.0,NNE,5.8,-,N/A,,Clear,20,2013-03-29 19:35:00
2:55 PM,53.6,30.7,42,30.22,10.0,NNE,3.5,-,N/A,,Clear,30,2013-03-29 19:55:00
3:15 PM,53.4,30.4,41,30.22,10.0,Calm,Calm,-,N/A,,Clear,0,2013-03-29 20:15:00
3:35 PM,53.6,31.3,43,30.21,10.0,Calm,Calm,-,N/A,,Clear,0,2013-03-29 20:35:00
3:55 PM,53.8,31.6,43,30.21,10.0,Calm,Calm,-,N/A,,Scattered Clouds,0,2013-03-29 20:55:00
4:15 PM,53.4,33.1,46,30.20,10.0,NE,4.6,-,N/A,,Scattered Clouds,40,2013-03-29 21:15:00
4:35 PM,53.2,31.6,44,30.20,10.0,Calm,Calm,-,N/A,,Clear,0,2013-03-29 21:35:00
4:55 PM,53.2,33.3,47,30.20,10.0,NNE,8.1,-,N/A,,Clear,30,2013-03-29 21:55:00
5:15 PM,52.9,33.1,47,30.20,10.0,East,5.8,-,N/A,,Clear,80,2013-03-29 22:15:00
5:35 PM,53.6,33.8,47,30.20,10.0,ENE,5.8,-,N/A,,Clear,60,2013-03-29 22:35:00
5:55 PM,53.1,32.7,46,30.20,10.0,NNE,4.6,-,N/A,,Clear,30,2013-03-29 22:55:00
6:15 PM,52.5,34.0,49,30.20,10.0,NE,3.5,-,N/A,,Clear,50,2013-03-29 23:15:00
6:35 PM,51.8,35.4,54,30.20,7.0,ENE,3.5,-,N/A,,Scattered Clouds,70,2013-03-29 23:35:00
6:55 PM,51.1,35.2,55,30.20,7.0,ENE,3.5,-,N/A,,Clear,70,2013-03-29 23:55:00
7:15 PM,50.0,34.0,54,30.20,10.0,North,3.5,-,N/A,,Clear,10,2013-03-30 00:15:00
7:35 PM,48.6,34.0,57,30.20,10.0,NNE,3.5,-,N/A,,Clear,20,2013-03-30 00:35:00
7:55 PM,45.5,35.4,68,30.20,10.0,NNE,4.6,-,N/A,,Clear,30,2013-03-30 00:55:00
8:15 PM,45.7,35.2,67,30.21,10.0,Calm,Calm,-,N/A,,Clear,0,2013-03-30 01:15:00
8:35 PM,42.8,35.6,76,30.21,10.0,Calm,Calm,-,N/A,,Clear,0,2013-03-30 01:35:00
8:55 PM,43.2,34.7,72,30.22,10.0,Calm,Calm,-,N/A,,Clear,0,2013-03-30 01:55:00
9:15 PM,43.2,35.1,73,30.22,10.0,Calm,Calm,-,N/A,,Clear,0,2013-03-30 02:15:00
9:35 PM,43.5,34.0,69,30.22,10.0,Calm,Calm,-,N/A,,Clear,0,2013-03-30 02:35:00
9:55 PM,42.8,32.9,68,30.22,10.0,Calm,Calm,-,N/A,,Clear,0,2013-03-30 02:55:00
10:15 PM,40.5,32.5,73,30.22,10.0,Calm,Calm,-,N/A,,Clear,0,2013-03-30 03:15:00
10:35 PM,43.5,32.0,64,30.22,10.0,Calm,Calm,-,N/A,,Clear,0,2013-03-30 03:35:00
10:55 PM,40.1,32.5,74,30.22,10.0,Calm,Calm,-,N/A,,Clear,0,2013-03-30 03:55:00
11:15 PM,37.8,33.6,85,30.22,10.0,Calm,Calm,-,N/A,,Clear,0,2013-03-30 04:15:00
11:35 PM,39.4,33.3,79,30.21,10.0,Calm,Calm,-,N/A,,Clear,0,2013-03-30 04:35:00
11:55 PM,40.3,33.3,76,30.20,10.0,Calm,Calm,-,N/A,,Clear,0,2013-03-30 04:55:00